Amritsar, India

2:12 PM IST on December 17, 2017 (GMT +0530)
Amritsar

Weather History for VIAR - February, 2013

Change the Weather History Date:

Wednesday, February 13, 2013

  Actual Average Record
Temperature  
Mean Temperature 60 °F -  
Max Temperature 73 °F 68 °F 78 °F (2006)
Min Temperature 46 °F 46 °F 33 °F (2008)
Degree Days  
Heating Degree Days 6    
Growing Degree Days 10 (Base 50)    
Moisture  
Dew Point 53 °F    
Average Humidity 82    
Maximum Humidity 100    
Minimum Humidity 44    
Precipitation  
Precipitation 0.00 in - - ()
Sea Level Pressure  
Sea Level Pressure 30.03 in    
Wind  
Wind Speed 2 mph ()    
Max Wind Speed 9 mph    
Max Gust Speed -    
Visibility 2.2 miles    
Events      
Averages and records for this station are not official NWS values.
T = Trace of Precipitation, MM = Missing Value Source: Averaged Metar Reports

Daily Weather History Graph

Daily Weather History Graph

Search for Another Location

Airport or City:

Trip Planner

Search our weather history database for the weather conditions in past years. The results will help you decide how hot, cold, wet, or windy it might be!

Date:

Astronomy

Feb. 13, 2013 Rise Set
Actual Time 7:14 AM IST 6:15 PM IST
Civil Twilight 6:49 AM IST 6:40 PM IST
Nautical Twilight 6:20 AM IST 7:09 PM IST
Astronomical Twilight 5:52 AM IST 7:37 PM IST
Moon 8:44 AM IST (2/13) 9:32 PM IST (2/13)
Length of Visible Light 11h 51m
Length of Day
11h 01m
Waxing Crescent, 10% of the Moon is Illuminated
Feb 13
Waxing Crescent
Feb 18
First Quarter
Feb 26
Full
Mar 5
Last Quarter
Mar 12
New

Hourly Weather History & Observations

Time (IST) Temp. Dew Point Humidity Pressure Visibility Wind Dir Wind Speed Gust Speed Precip Events Conditions
12:00 AM 51.8 °F 51.8 °F 100% 30.04 in 1.9 mi Calm Calm - N/A   Scattered Clouds
12:30 AM 51.8 °F 51.8 °F 100% 30.04 in 1.9 mi Calm Calm - N/A   Scattered Clouds
1:00 AM 50.0 °F 50.0 °F 100% 30.04 in 1.9 mi Calm Calm - N/A   Scattered Clouds
1:30 AM 51.8 °F 51.8 °F 100% 30.04 in 1.9 mi Calm Calm - N/A   Scattered Clouds
2:00 AM 50.0 °F 50.0 °F 100% 30.04 in 1.9 mi Calm Calm - N/A   Scattered Clouds
2:30 AM 50.0 °F 50.0 °F 100% 30.04 in 1.9 mi Calm Calm - N/A   Scattered Clouds
3:00 AM 48.2 °F 48.2 °F 100% 30.04 in 1.2 mi Calm Calm - N/A   Scattered Clouds
3:30 AM 50.0 °F 50.0 °F 100% 30.04 in 1.2 mi Calm Calm - N/A   Scattered Clouds
4:00 AM 50.0 °F 50.0 °F 100% 30.04 in 1.2 mi Calm Calm - N/A   Scattered Clouds
4:30 AM 50.0 °F 50.0 °F 100% 30.04 in 1.2 mi Calm Calm - N/A   Scattered Clouds
5:00 AM 48.2 °F 48.2 °F 100% 30.01 in 1.2 mi Calm Calm - N/A   Scattered Clouds
5:30 AM 50.0 °F 50.0 °F 100% 30.01 in 1.2 mi Calm Calm - N/A   Scattered Clouds
6:00 AM 48.2 °F 48.2 °F 100% 30.04 in 1.2 mi Calm Calm - N/A   Scattered Clouds
7:00 AM 48.2 °F 48.2 °F 100% 30.04 in 1.2 mi NNW 5.8 mph - N/A   Scattered Clouds
7:30 AM 48.2 °F 48.2 °F 100% 30.04 in 1.2 mi Calm Calm - N/A   Scattered Clouds
8:00 AM - - N/A% 30.04 in 1.6 mi Calm Calm - N/A   Scattered Clouds
8:30 AM 51 °F 51 °F 98% 30.06 in 1 mi Calm Calm - -   Mist
8:30 AM 50.0 °F 50.0 °F 100% 30.04 in 1.6 mi Calm Calm - N/A   Scattered Clouds
9:30 AM 57.2 °F 55.4 °F 94% 30.06 in 1.9 mi Variable 2.3 mph - N/A   Partly Cloudy
10:00 AM 60.8 °F 51.8 °F 72% 30.06 in 2.5 mi NW 5.8 mph - N/A   Haze
10:30 AM 62.6 °F 51.8 °F 68% 30.06 in 2.5 mi NW 5.8 mph - N/A   Haze
11:30 AM 66 °F 54 °F 56% 30.07 in 2 mi WNW 5.8 mph - -   Haze
11:30 AM 66.2 °F 53.6 °F 64% 30.06 in 3.1 mi WNW 5.8 mph - N/A   Haze
12:00 PM 68.0 °F 53.6 °F 60% 30.06 in 3.1 mi WNW 4.6 mph - N/A   Haze
12:30 PM 68.0 °F 51.8 °F 56% 30.06 in 3.7 mi WNW 8.1 mph - N/A   Scattered Clouds
1:00 PM 69.8 °F 55.4 °F 60% 30.06 in 3.7 mi WNW 6.9 mph - N/A   Scattered Clouds
1:30 PM 69.8 °F 55.4 °F 60% 30.04 in 3.7 mi WNW 8.1 mph - N/A   Scattered Clouds
2:00 PM 71.6 °F 55.4 °F 57% 30.04 in 3.7 mi WNW 9.2 mph - N/A   Scattered Clouds
2:30 PM 72 °F 54 °F 44% 30.00 in 2 mi WNW 8.1 mph - -   Partly Cloudy
2:30 PM 71.6 °F 53.6 °F 53% 30.01 in 3.7 mi West 8.1 mph - N/A   Scattered Clouds
3:00 PM 71.6 °F 51.8 °F 50% 30.01 in 3.7 mi NW 9.2 mph - N/A   Scattered Clouds
3:30 PM 71.6 °F 53.6 °F 53% 30.01 in 3.7 mi WNW 6.9 mph - N/A   Scattered Clouds
4:00 PM 71.6 °F 53.6 °F 53% 30.01 in 3.7 mi WNW 6.9 mph - N/A   Scattered Clouds
4:30 PM 69.8 °F 53.6 °F 56% 30.01 in 3.1 mi West 6.9 mph - N/A   Haze
5:00 PM 69.8 °F 53.6 °F 56% 29.98 in 3.1 mi WNW 4.6 mph - N/A   Haze
5:30 PM 69 °F 56 °F 53% 29.97 in 1 mi West 3.5 mph - -   Haze
5:30 PM 69.8 °F 55.4 °F 60% 29.98 in 3.1 mi West 3.5 mph - N/A   Haze
6:00 PM 66.2 °F 57.2 °F 73% 29.98 in 2.5 mi Calm Calm - N/A   Scattered Clouds
6:30 PM 64.4 °F 57.2 °F 77% 29.98 in 2.5 mi West 4.6 mph - N/A   Scattered Clouds
7:00 PM 62.6 °F 55.4 °F 77% 29.98 in 2.2 mi Variable 2.3 mph - N/A   Scattered Clouds
7:30 PM 60.8 °F 57.2 °F 88% 29.98 in 2.2 mi Variable 2.3 mph - N/A   Scattered Clouds
8:30 PM 58 °F 57 °F 94% 30.00 in 1 mi Calm Calm - -   Mist
8:30 PM 59.0 °F 57.2 °F 94% 30.09 in 2.2 mi Calm Calm - N/A   Scattered Clouds
9:00 PM 57.2 °F 55.4 °F 94% 30.01 in 2.2 mi Calm Calm - N/A   Scattered Clouds
9:30 PM 57.2 °F 57.2 °F 100% 30.01 in 2.2 mi Calm Calm - N/A   Scattered Clouds
10:30 PM 53.6 °F 53.6 °F 100% 30.01 in 1.9 mi Calm Calm - N/A   Scattered Clouds
11:00 PM 53.6 °F 53.6 °F 100% 30.01 in 1.9 mi Calm Calm - N/A   Scattered Clouds
11:30 PM 53 °F 53 °F 99% 30.02 in 1 mi Calm Calm - -   Mist
11:30 PM 53.6 °F 53.6 °F 100% 30.01 in 1.6 mi Calm Calm - N/A   Partly Cloudy